sat.trackr.live / text

‹ back to catalog

STARLINK-5040

NORAD 53914 · 2022-119AE

PAYLOAD ACTIVE UNKNOWN

§ Identity

Operator
Country
US
Launch date
2022-09-24
Launch site
AFETR
Launch vehicle
Mass (kg)
RCS (m²)

Purposes: comms

External: N2YO · Heavens-Above · Gunter

§ Orbital elements

Epoch: 2026-09-20T22:00:03.000096Z

Period
94.71 min
Inclination
53.1600°
Eccentricity
0.0001266
Mean motion
15.20350883 rev/d
Perigee alt
503.9 km
Apogee alt
505.7 km
Semi-major
6,882.9 km
B*
1.8276e-2
RAAN
156.2397°
Arg perigee
83.6560°
Mean anomaly
116.0263°
Rev number
580

§ Raw data

STARLINK-50401 53914U 22119AE  26263.91670139  .00426832  00000+0  18276-1 0  99912 53914  53.1600 156.2397 0001266  83.6560 116.0263 15.20350883  5802

JSON: /api/v1/satellites/53914 · /tle

For live sub-satellite position, see the globe view (requires WebGL).

§ Visibility from observer

Set your observer location to see the next 7 days of passes ≥ 10°. The values pass through the URL so the page stays shareable.

No JS? Fill the form by hand. The geolocation button needs JavaScript.